Flag for Canada Weather past 2 weeks in Cambridge, Ontario, Canada

Now
21 °F

Passing clouds.


Feels Like: 5 °F
Forecast: 5 / 23 °F
Wind: 22 mph from Northwest

Location: Waterloo Well

Current Time: Mar 2, 2015 at 10:33:26 AM

Latest Report: Mar 2, 2015 at 10:00 AM


Visibility: 9 mi

Pressure: 30.31 "Hg

Humidity: 74%

Dew point: 14 °F

Location of CambridgeLocation

Historic Weather in Cambridge — Graph

°F

Cambridge temperature yesterday

Maximum temperature yesterday: 23 °F (at 1:00 PM)
Minimum temperature yesterday: -2 °F (at 12:00 AM)
Average temperature yesterday: 15 °F

Past Weeks' High & Low Weather Summary

 TemperatureHumidityPressure
High23 °F (Mar 1, 1:00 PM)100% (Mar 1, 11:00 PM)30.78 "Hg (Mar 1, 11:00 PM)
Low-27 °F (Feb 16, 7:04 AM)30% (Feb 17, 11:00 AM)29.60 "Hg (Feb 25, 1:00 AM)
Average3 °F75%30.19 "Hg
* Reported Feb 15 9:00 AM — Mar 2 9:00 AM, Cambridge, Weather by CustomWeather, © 2015

Note: Actual official high and low records may vary slightly from our data, if they occured in-between our weather recording intervals... More about our weather records

Advertising

Cambridge weather history for previous 24 hours

 ConditionsComfort  
Time TempWeatherWind HumidityBarometerVisibility
9:00 AM
Mon, Mar 2
19 °FSunny.21 mph79%30.28 "Hg9 mi
8:00 AM19 °FLight snow. Sunny.18 mph79%30.25 "Hg9 mi
7:04 AM21 °FLight snow. Mostly cloudy.17 mph80%30.21 "Hg7 mi
7:03 AM21 °FLight snow. Cloudy.17 mph80%30.21 "Hg7 mi
6:00 AM19 °FLight snow. Mostly cloudy.15 mph86%30.19 "Hg3 mi
5:00 AM19 °FLight snow. Mostly cloudy.15 mph86%30.16 "Hg4 mi
4:00 AM18 °FClear.13 mph86%30.15 "Hg8 mi
3:59 AM18 °FPassing clouds.14 mph86%30.15 "Hg8 mi
3:03 AM18 °FOvercast.13 mph86%30.14 "Hg7 mi
2:00 AM18 °FLight snow. Overcast.12 mph86%30.15 "Hg3 mi
1:00 AM16 °FIce fog.7 mph93%30.16 "Hg4 mi
12:00 AM16 °FIce fog.8 mph93%30.17 "Hg4 mi
11:00 PM
Sun, Mar 1
10 °FIce fog.3 mph100%30.18 "Hg1 mi
10:00 PM14 °FIce fog.3 mph92%30.18 "Hg3 mi
9:00 PM16 °FIce fog.6 mph86%30.19 "Hg5 mi
8:52 PM16 °FIce fog.2 mph86%30.20 "Hg5 mi
8:00 PM18 °FPartly cloudy.6 mph86%30.20 "Hg7 mi
7:53 PM18 °FPartly cloudy.6 mph86%30.20 "Hg7 mi
7:00 PM19 °FPassing clouds.9 mph86%30.21 "Hg9 mi
6:00 PM21 °FOvercast.10 mph80%30.22 "Hg9 mi
5:00 PM23 °FLight snow. Partly sunny.10 mph74%30.23 "Hg9 mi
4:53 PM23 °FLight snow. Overcast.8 mph74%30.22 "Hg9 mi
4:00 PM23 °FPartly sunny.10 mph80%30.25 "Hg9 mi
3:53 PM23 °FPartly sunny.9 mph74%30.25 "Hg9 mi
3:00 PM23 °FOvercast.9 mph74%30.26 "Hg9 mi
2:00 PM23 °FPassing clouds.12 mph74%30.28 "Hg9 mi
1:00 PM23 °FPartly sunny.8 mph74%30.32 "Hg9 mi
12:46 PM21 °FScattered clouds.9 mph80%30.33 "Hg9 mi
12:00 PM21 °FScattered clouds.8 mph80%30.34 "Hg9 mi
11:00 AM18 °FPartly sunny.5 mph79%30.39 "Hg8 mi
10:00 AM14 °FLight snow. Broken clouds.2 mph79%30.43 "Hg7 mi
Weather by CustomWeather, © 2015

See weather overviewHow to use our weather pages